Location: Apalco
(33.3585°N, 93.4602°W)
Time: 04:04:01
(UTC+00:00)

Envisat - Pass Details

Date: 01 October 2021
Orbit: 764 x 766 km, 98.2° (Epoch: 23 October)

Event Time Altitude Azimuth Distance (km) Brightness Sun altitude
Rises 10:18:28 0° 30° (NNE) 3,233 6.8 -23.6°
Reaches altitude 10° 10:21:21 10° 47° (NE) 2,302 6.3 -23.1°
Maximum altitude 10:25:05 21° 95° (E) 1,685 5.6 -22.3°
Drops below altitude 10° 10:28:49 10° 142° (SE) 2,291 5.8 -21.5°
Sets 10:31:39 0° 159° (SSE) 3,213 6.4 -20.9°
